DFOOD EGCK-LFLJ

Flight info

Callsign DFOOD
Flight time N/A
Altitude 23000
Route BERUL Y125 RETSI/N0272F250 DCT OXLOW DCT LGL UN859 SORAP DCT SALEV
Aircraft PC12/L-SDFGRWY/S

Departure

Time 2026-04-15 09:56
Airport Caernarfon Airport (EGCK)

Arrival

Time N/A
Airport Courchevel Altiport (LFLJ)
Time Latitude Longitude Altitude Speed Heading
2026-04-15 09:43 53.10050 -4.33859 15 ft 0 kts 339°
2026-04-15 09:51 53.10053 -4.33862 15 ft 2 kts 339°
2026-04-15 09:52 53.10067 -4.33891 16 ft 2 kts 237°
2026-04-15 09:52 53.10062 -4.33912 16 ft 7 kts 248°
2026-04-15 09:52 53.10029 -4.34013 14 ft 10 kts 223°
2026-04-15 09:52 53.09995 -4.34066 14 ft 4 kts 221°
2026-04-15 09:53 53.09986 -4.34079 14 ft 5 kts 220°
2026-04-15 09:53 53.09958 -4.34177 17 ft 12 kts 282°
2026-04-15 09:53 53.10057 -4.34175 15 ft 20 kts 14°
2026-04-15 09:53 53.10209 -4.34116 18 ft 24 kts 13°
2026-04-15 09:54 53.10386 -4.34048 21 ft 28 kts 16°
2026-04-15 09:54 53.10591 -4.33968 18 ft 33 kts 12°
2026-04-15 09:54 53.10801 -4.33888 13 ft 15 kts 13°
2026-04-15 09:54 53.10878 -4.33854 12 ft 0 kts 110°
2026-04-15 09:55 53.10874 -4.33851 12 ft 3 kts 173°
2026-04-15 09:55 53.10866 -4.33853 12 ft 0 kts 195°
2026-04-15 09:55 53.10864 -4.33854 12 ft 3 kts 194°
2026-04-15 09:56 53.10679 -4.33931 19 ft 50 kts 191°
2026-04-15 09:56 53.10225 -4.34107 59 ft 78 kts 189°
2026-04-15 09:56 53.09195 -4.34191 681 ft 92 kts 136°
2026-04-15 09:57 53.09080 -4.32959 963 ft 123 kts 105°
2026-04-15 09:57 53.08900 -4.31548 1288 ft 126 kts 129°
2026-04-15 09:57 53.08347 -4.30289 1525 ft 146 kts 141°
2026-04-15 09:57 53.07665 -4.28916 1870 ft 160 kts 141°
2026-04-15 09:58 53.06923 -4.27464 2295 ft 168 kts 142°
2026-04-15 09:58 53.06140 -4.25954 2737 ft 176 kts 142°
2026-04-15 09:58 53.05314 -4.24372 3174 ft 186 kts 142°
2026-04-15 09:58 53.04463 -4.22730 3671 ft 187 kts 141°
2026-04-15 09:59 53.03638 -4.21127 4168 ft 178 kts 142°
2026-04-15 09:59 53.02845 -4.19595 4668 ft 167 kts 143°
2026-04-15 09:59 53.02075 -4.18126 5172 ft 169 kts 143°
2026-04-15 09:59 53.01299 -4.16647 5691 ft 170 kts 142°
2026-04-15 10:00 53.00770 -4.15638 6043 ft 173 kts 142°
2026-04-15 10:00 52.99967 -4.14106 6541 ft 177 kts 142°
2026-04-15 10:00 52.99165 -4.12565 7035 ft 176 kts 142°
2026-04-15 10:00 52.98371 -4.11046 7522 ft 175 kts 142°
2026-04-15 10:01 52.97574 -4.09522 8029 ft 174 kts 142°
2026-04-15 10:01 52.96771 -4.07993 8545 ft 176 kts 142°
2026-04-15 10:01 52.95965 -4.06456 9064 ft 177 kts 142°
2026-04-15 10:01 52.95153 -4.04909 9598 ft 178 kts 141°
2026-04-15 10:02 52.94339 -4.03354 10093 ft 180 kts 141°
2026-04-15 10:02 52.93502 -4.01761 10561 ft 186 kts 141°
2026-04-15 10:02 52.92649 -4.00141 10930 ft 191 kts 141°
2026-04-15 10:02 52.91771 -3.98469 11304 ft 193 kts 141°
2026-04-15 10:03 52.90885 -3.96782 11688 ft 194 kts 141°
2026-04-15 10:03 52.89998 -3.95096 12073 ft 195 kts 141°
2026-04-15 10:03 52.89141 -3.93468 12447 ft 196 kts 141°
2026-04-15 10:03 52.88243 -3.91766 12844 ft 197 kts 141°
2026-04-15 10:04 52.87337 -3.90049 13244 ft 198 kts 141°
2026-04-15 10:04 52.86426 -3.88323 13645 ft 200 kts 141°
2026-04-15 10:04 52.85513 -3.86594 14011 ft 200 kts 141°
2026-04-15 10:04 52.84595 -3.84857 14370 ft 200 kts 141°
2026-04-15 10:05 52.83675 -3.83118 14730 ft 201 kts 141°
2026-04-15 10:05 52.82757 -3.81381 15090 ft 200 kts 142°
2026-04-15 10:05 52.81843 -3.79656 15466 ft 198 kts 142°
2026-04-15 10:05 52.80937 -3.77947 15843 ft 197 kts 142°
2026-04-15 10:06 52.80105 -3.76116 16229 ft 203 kts 131°
2026-04-15 10:06 52.79542 -3.73905 16616 ft 215 kts 118°
2026-04-15 10:06 52.79305 -3.71454 17007 ft 224 kts 105°
2026-04-15 10:06 52.79284 -3.68854 17398 ft 227 kts 102°
2026-04-15 10:07 52.79283 -3.66244 17800 ft 227 kts 103°
2026-04-15 10:07 52.79260 -3.63638 18190 ft 227 kts 104°
2026-04-15 10:07 52.79211 -3.61034 18552 ft 226 kts 105°
2026-04-15 10:07 52.79136 -3.58444 18904 ft 225 kts 107°
2026-04-15 10:08 52.79035 -3.55870 19260 ft 225 kts 107°
2026-04-15 10:08 52.78913 -3.53303 19621 ft 223 kts 109°
2026-04-15 10:08 52.78730 -3.50770 19996 ft 222 kts 111°
2026-04-15 10:08 52.78510 -3.48246 20353 ft 222 kts 113°
2026-04-15 10:09 52.78250 -3.45742 20736 ft 217 kts 118°
2026-04-15 10:09 52.77570 -3.43765 21130 ft 186 kts 152°
2026-04-15 10:09 52.76482 -3.43022 21540 ft 167 kts 177°
2026-04-15 10:09 52.75338 -3.42701 21933 ft 168 kts 174°
2026-04-15 10:10 52.74211 -3.42117 22330 ft 172 kts 167°
2026-04-15 10:10 52.73120 -3.41274 22739 ft 175 kts 163°
2026-04-15 10:10 52.72011 -3.40326 22878 ft 188 kts 162°
2026-04-15 10:10 52.70804 -3.39284 22881 ft 202 kts 161°
2026-04-15 10:11 52.69519 -3.38166 22892 ft 213 kts 161°
2026-04-15 10:11 52.68210 -3.37024 22891 ft 212 kts 161°
2026-04-15 10:11 52.66909 -3.35893 22889 ft 210 kts 161°
2026-04-15 10:11 52.65616 -3.34776 22887 ft 209 kts 161°
2026-04-15 10:12 52.64332 -3.33668 22890 ft 207 kts 162°
2026-04-15 10:12 52.63205 -3.32694 22893 ft 206 kts 162°
2026-04-15 10:12 52.61953 -3.31614 22884 ft 206 kts 162°
2026-04-15 10:12 52.60684 -3.30520 22887 ft 206 kts 162°
2026-04-15 10:13 52.59415 -3.29426 22893 ft 206 kts 162°
2026-04-15 10:13 52.58147 -3.28334 22895 ft 206 kts 162°
2026-04-15 10:13 52.56876 -3.27239 22898 ft 206 kts 162°
2026-04-15 10:13 52.55606 -3.26146 22893 ft 206 kts 162°
2026-04-15 10:14 52.54334 -3.25053 22898 ft 206 kts 162°
2026-04-15 10:14 52.53054 -3.23954 22896 ft 207 kts 162°
2026-04-15 10:14 52.51779 -3.22859 22897 ft 207 kts 162°
2026-04-15 10:14 52.50500 -3.21761 22897 ft 207 kts 162°
2026-04-15 10:15 52.49240 -3.20680 22901 ft 207 kts 162°
2026-04-15 10:15 52.47966 -3.19588 22900 ft 206 kts 162°
2026-04-15 10:15 52.46688 -3.18494 22902 ft 207 kts 162°
2026-04-15 10:15 52.45406 -3.17398 22901 ft 208 kts 162°
2026-04-15 10:16 52.44118 -3.16297 22903 ft 209 kts 162°
2026-04-15 10:16 52.42826 -3.15191 22901 ft 210 kts 161°
2026-04-15 10:16 52.41548 -3.14100 22910 ft 210 kts 162°
2026-04-15 10:16 52.40248 -3.12991 22906 ft 211 kts 162°
2026-04-15 10:17 52.38941 -3.11877 22909 ft 211 kts 162°
2026-04-15 10:17 52.37637 -3.10765 22909 ft 212 kts 162°
2026-04-15 10:17 52.36326 -3.09648 22911 ft 212 kts 162°
2026-04-15 10:17 52.35036 -3.08549 22907 ft 212 kts 162°
2026-04-15 10:18 52.33724 -3.07432 22916 ft 212 kts 161°
2026-04-15 10:18 52.32407 -3.06314 22915 ft 213 kts 162°
2026-04-15 10:18 52.31083 -3.05191 22914 ft 214 kts 162°
2026-04-15 10:18 52.29781 -3.04085 22917 ft 214 kts 162°
2026-04-15 10:19 52.28460 -3.02964 22915 ft 215 kts 162°
2026-04-15 10:19 52.27133 -3.01839 22914 ft 215 kts 162°
2026-04-15 10:19 52.25804 -3.00712 22920 ft 215 kts 162°
2026-04-15 10:19 52.24474 -2.99587 22918 ft 215 kts 162°
2026-04-15 10:20 52.23143 -2.98461 22920 ft 216 kts 162°
2026-04-15 10:20 52.21805 -2.97330 22924 ft 216 kts 162°
2026-04-15 10:20 52.20467 -2.96200 22921 ft 217 kts 162°
2026-04-15 10:20 52.19126 -2.95067 22918 ft 217 kts 162°
2026-04-15 10:21 52.17786 -2.93936 22927 ft 217 kts 162°
2026-04-15 10:21 52.16442 -2.92804 22927 ft 218 kts 162°
2026-04-15 10:21 52.15092 -2.91666 22930 ft 218 kts 162°
2026-04-15 10:21 52.13759 -2.90543 22923 ft 219 kts 162°
2026-04-15 10:22 52.12405 -2.89404 22930 ft 219 kts 162°
2026-04-15 10:22 52.11049 -2.88265 22934 ft 220 kts 162°
2026-04-15 10:22 52.09687 -2.87120 22931 ft 220 kts 162°
2026-04-15 10:22 52.08330 -2.85979 22935 ft 220 kts 162°
2026-04-15 10:23 52.06964 -2.84834 22933 ft 221 kts 162°
2026-04-15 10:23 52.06038 -2.84058 22930 ft 222 kts 162°
2026-04-15 10:23 52.04220 -2.82534 22935 ft 223 kts 162°
2026-04-15 10:23 52.02838 -2.81377 22931 ft 223 kts 162°
2026-04-15 10:24 52.01456 -2.80219 22934 ft 224 kts 162°
2026-04-15 10:24 52.00073 -2.79063 22935 ft 224 kts 162°
2026-04-15 10:24 51.98685 -2.77903 22933 ft 224 kts 162°
2026-04-15 10:24 51.97765 -2.77135 22935 ft 224 kts 162°
2026-04-15 10:25 51.96378 -2.75977 22939 ft 224 kts 162°
2026-04-15 10:25 51.94989 -2.74819 22940 ft 225 kts 162°
2026-04-15 10:25 51.93648 -2.73701 22936 ft 225 kts 162°
2026-04-15 10:25 51.91800 -2.72162 22933 ft 225 kts 162°
2026-04-15 10:26 51.90858 -2.71378 22940 ft 225 kts 162°
2026-04-15 10:26 51.89475 -2.70228 22935 ft 226 kts 162°
2026-04-15 10:26 51.88076 -2.69065 22936 ft 226 kts 162°
2026-04-15 10:26 51.86679 -2.67904 22939 ft 225 kts 162°
2026-04-15 10:27 51.85281 -2.66744 22944 ft 226 kts 162°
2026-04-15 10:27 51.83876 -2.65580 22944 ft 227 kts 162°
2026-04-15 10:27 51.82467 -2.64412 22943 ft 228 kts 162°
2026-04-15 10:27 51.81055 -2.63241 22945 ft 228 kts 162°
2026-04-15 10:28 51.79637 -2.62068 22938 ft 229 kts 162°
2026-04-15 10:28 51.78216 -2.60893 22935 ft 230 kts 162°
2026-04-15 10:28 51.76789 -2.59713 22943 ft 230 kts 162°
2026-04-15 10:28 51.75362 -2.58534 22938 ft 230 kts 162°
2026-04-15 10:29 51.74056 -2.57457 22945 ft 230 kts 162°
2026-04-15 10:29 51.72646 -2.56294 22948 ft 231 kts 162°
2026-04-15 10:29 51.71210 -2.55111 22944 ft 232 kts 162°
2026-04-15 10:29 51.69775 -2.53928 22945 ft 232 kts 162°
2026-04-15 10:30 51.68335 -2.52743 22944 ft 232 kts 162°
2026-04-15 10:30 51.66896 -2.51560 22948 ft 232 kts 162°
2026-04-15 10:30 51.65455 -2.50375 22953 ft 232 kts 162°
2026-04-15 10:30 51.64016 -2.49194 22950 ft 232 kts 162°
2026-04-15 10:31 51.62574 -2.48011 22957 ft 233 kts 162°
2026-04-15 10:31 51.61127 -2.46824 22965 ft 234 kts 162°
2026-04-15 10:31 51.59679 -2.45637 22961 ft 234 kts 162°
2026-04-15 10:31 51.58231 -2.44452 22964 ft 234 kts 162°
2026-04-15 10:32 51.56781 -2.43265 22960 ft 234 kts 161°
2026-04-15 10:32 51.55330 -2.42079 22961 ft 234 kts 161°
2026-04-15 10:32 51.53873 -2.40889 22963 ft 235 kts 161°
2026-04-15 10:32 51.52430 -2.39710 22961 ft 235 kts 161°
2026-04-15 10:33 51.50970 -2.38518 22964 ft 235 kts 161°
2026-04-15 10:33 51.49508 -2.37327 22964 ft 236 kts 161°
2026-04-15 10:33 51.48040 -2.36131 22964 ft 236 kts 161°
2026-04-15 10:33 51.46573 -2.34936 22968 ft 236 kts 161°
2026-04-15 10:34 51.45102 -2.33739 22966 ft 237 kts 161°
2026-04-15 10:34 51.43632 -2.32545 22967 ft 237 kts 161°
2026-04-15 10:34 51.42161 -2.31349 22968 ft 237 kts 161°
2026-04-15 10:34 51.40690 -2.30155 22973 ft 238 kts 161°
2026-04-15 10:35 51.39215 -2.28959 22972 ft 238 kts 161°
2026-04-15 10:35 51.37732 -2.27757 22975 ft 239 kts 161°
2026-04-15 10:35 51.36249 -2.26555 22974 ft 239 kts 161°
2026-04-15 10:35 51.34782 -2.25368 22972 ft 240 kts 161°
2026-04-15 10:36 51.33290 -2.24162 22973 ft 241 kts 161°
2026-04-15 10:36 51.31772 -2.22935 22980 ft 242 kts 161°
2026-04-15 10:36 51.30289 -2.21737 22978 ft 242 kts 161°
2026-04-15 10:36 51.28784 -2.20522 22987 ft 242 kts 161°
2026-04-15 10:37 51.27280 -2.19309 22991 ft 242 kts 161°
2026-04-15 10:37 51.25769 -2.18092 22990 ft 243 kts 161°
2026-04-15 10:37 51.24260 -2.16876 22995 ft 243 kts 161°
2026-04-15 10:37 51.22748 -2.15660 22998 ft 244 kts 161°
2026-04-15 10:38 51.21230 -2.14439 22998 ft 244 kts 161°
2026-04-15 10:38 51.19710 -2.13218 22998 ft 245 kts 161°
2026-04-15 10:38 51.18182 -2.11991 22998 ft 246 kts 161°
2026-04-15 10:38 51.16653 -2.10765 23002 ft 246 kts 161°
2026-04-15 10:39 51.15124 -2.09538 23002 ft 247 kts 161°
2026-04-15 10:39 51.13601 -2.08319 22998 ft 248 kts 161°
2026-04-15 10:39 51.12061 -2.07086 23002 ft 248 kts 161°
2026-04-15 10:39 51.10520 -2.05853 23001 ft 248 kts 161°
2026-04-15 10:40 51.08980 -2.04622 22999 ft 248 kts 161°
2026-04-15 10:40 51.07438 -2.03391 23005 ft 248 kts 161°
2026-04-15 10:40 51.05893 -2.02158 23003 ft 248 kts 161°
2026-04-15 10:40 51.04900 -2.01366 23003 ft 248 kts 161°
2026-04-15 10:41 51.03354 -2.00116 23005 ft 250 kts 157°
2026-04-15 10:41 51.01924 -1.98498 23006 ft 253 kts 149°
2026-04-15 10:41 51.00534 -1.96809 23012 ft 254 kts 149°
2026-04-15 10:41 50.99123 -1.95123 23010 ft 254 kts 150°
2026-04-15 10:42 50.97704 -1.93435 23020 ft 255 kts 150°
2026-04-15 10:42 50.96287 -1.91745 23027 ft 256 kts 149°
2026-04-15 10:42 50.94864 -1.90046 23029 ft 256 kts 149°
2026-04-15 10:42 50.93439 -1.88347 23030 ft 256 kts 149°
2026-04-15 10:43 50.92011 -1.86647 23031 ft 257 kts 149°
2026-04-15 10:43 50.90578 -1.84942 23043 ft 258 kts 149°
2026-04-15 10:43 50.89140 -1.83232 23037 ft 258 kts 149°
2026-04-15 10:43 50.87704 -1.81526 23043 ft 259 kts 149°
2026-04-15 10:44 50.86258 -1.79809 23041 ft 260 kts 149°
2026-04-15 10:44 50.84812 -1.78094 23042 ft 260 kts 149°
2026-04-15 10:44 50.83363 -1.76376 23037 ft 260 kts 149°
2026-04-15 10:44 50.81911 -1.74657 23042 ft 260 kts 149°
2026-04-15 10:45 50.80478 -1.72961 23040 ft 261 kts 149°
2026-04-15 10:45 50.79026 -1.71244 23041 ft 261 kts 149°
2026-04-15 10:45 50.77569 -1.69522 23040 ft 261 kts 149°
2026-04-15 10:45 50.76200 -1.67906 23042 ft 261 kts 149°
2026-04-15 10:46 50.74835 -1.66295 23037 ft 261 kts 149°
2026-04-15 10:46 50.73379 -1.64580 23039 ft 261 kts 148°
2026-04-15 10:46 50.71916 -1.62856 23040 ft 262 kts 148°
2026-04-15 10:46 50.70455 -1.61137 23034 ft 262 kts 148°
2026-04-15 10:47 50.68990 -1.59414 23036 ft 263 kts 148°
2026-04-15 10:47 50.67523 -1.57690 23039 ft 263 kts 148°
2026-04-15 10:47 50.66056 -1.55968 23036 ft 264 kts 148°
2026-04-15 10:47 50.64582 -1.54238 23039 ft 264 kts 148°
2026-04-15 10:48 50.63109 -1.52512 23036 ft 264 kts 148°
2026-04-15 10:48 50.61645 -1.50796 23038 ft 265 kts 148°
2026-04-15 10:48 50.60166 -1.49065 23042 ft 265 kts 148°
2026-04-15 10:48 50.58684 -1.47332 23042 ft 265 kts 148°
2026-04-15 10:49 50.57200 -1.45597 23043 ft 266 kts 148°
2026-04-15 10:49 50.55711 -1.43859 23044 ft 266 kts 148°
2026-04-15 10:49 50.54224 -1.42124 23047 ft 267 kts 148°
2026-04-15 10:49 50.52731 -1.40384 23049 ft 267 kts 148°
2026-04-15 10:50 50.51238 -1.38645 23044 ft 267 kts 148°
2026-04-15 10:50 50.49738 -1.36899 23046 ft 268 kts 147°
2026-04-15 10:50 50.48242 -1.35159 23047 ft 268 kts 147°
2026-04-15 10:50 50.46760 -1.33437 23049 ft 268 kts 147°
2026-04-15 10:51 50.45259 -1.31695 23051 ft 268 kts 147°
2026-04-15 10:51 50.43754 -1.29949 23049 ft 269 kts 147°
2026-04-15 10:51 50.42249 -1.28205 23048 ft 269 kts 147°
2026-04-15 10:51 50.40738 -1.26454 23054 ft 269 kts 147°
2026-04-15 10:52 50.39230 -1.24709 23056 ft 270 kts 147°
2026-04-15 10:52 50.37715 -1.22957 23054 ft 270 kts 147°
2026-04-15 10:52 50.36204 -1.21211 23057 ft 270 kts 147°
2026-04-15 10:52 50.34709 -1.19485 23055 ft 270 kts 147°
2026-04-15 10:53 50.33191 -1.17734 23060 ft 271 kts 147°
2026-04-15 10:53 50.31673 -1.15985 23061 ft 271 kts 147°
2026-04-15 10:53 50.30151 -1.14232 23061 ft 271 kts 147°
2026-04-15 10:53 50.28633 -1.12485 23062 ft 271 kts 147°
2026-04-15 10:54 50.27108 -1.10732 23064 ft 272 kts 147°
2026-04-15 10:54 50.25585 -1.08982 23065 ft 272 kts 146°
2026-04-15 10:54 50.24056 -1.07227 23068 ft 272 kts 146°
2026-04-15 10:54 50.22526 -1.05472 23064 ft 272 kts 146°
2026-04-15 10:55 50.20997 -1.03720 23066 ft 273 kts 146°
2026-04-15 10:55 50.19479 -1.01980 23065 ft 273 kts 146°
2026-04-15 10:55 50.17947 -1.00228 23067 ft 273 kts 146°
2026-04-15 10:55 50.16412 -0.98473 23069 ft 273 kts 146°
2026-04-15 10:56 50.14874 -0.96716 23072 ft 274 kts 146°
2026-04-15 10:56 50.13337 -0.94961 23074 ft 274 kts 146°
2026-04-15 10:56 50.11800 -0.93208 23073 ft 274 kts 146°
2026-04-15 10:56 50.10259 -0.91452 23073 ft 274 kts 146°
2026-04-15 10:57 50.08715 -0.89694 23076 ft 275 kts 146°
2026-04-15 10:57 50.05620 -0.86175 23076 ft 275 kts 146°
2026-04-15 10:57 50.04095 -0.84443 23078 ft 275 kts 146°
2026-04-15 10:58 50.02526 -0.82662 23075 ft 276 kts 146°
2026-04-15 10:58 50.00993 -0.80923 23078 ft 276 kts 146°
2026-04-15 10:58 49.99438 -0.79162 23078 ft 276 kts 146°
2026-04-15 10:58 49.97884 -0.77402 23079 ft 277 kts 146°
2026-04-15 10:59 49.96324 -0.75638 23082 ft 277 kts 146°
2026-04-15 10:59 49.94766 -0.73876 23081 ft 277 kts 146°
2026-04-15 10:59 49.93208 -0.72116 23079 ft 277 kts 146°
2026-04-15 10:59 49.91647 -0.70355 23084 ft 277 kts 146°
2026-04-15 11:00 49.90086 -0.68595 23083 ft 278 kts 145°
2026-04-15 11:00 49.88521 -0.66832 23089 ft 278 kts 145°
2026-04-15 11:00 49.86955 -0.65069 23083 ft 278 kts 145°
2026-04-15 11:00 49.85389 -0.63307 23084 ft 278 kts 145°
2026-04-15 11:01 49.83819 -0.61543 23083 ft 279 kts 145°
2026-04-15 11:01 49.82263 -0.59796 23084 ft 279 kts 145°
2026-04-15 11:01 49.80689 -0.58030 23088 ft 280 kts 145°
2026-04-15 11:01 49.79110 -0.56259 23085 ft 280 kts 145°
2026-04-15 11:02 49.77543 -0.54503 23091 ft 278 kts 145°
2026-04-15 11:02 49.75974 -0.52748 23091 ft 278 kts 145°
2026-04-15 11:02 49.74397 -0.50988 23096 ft 279 kts 145°
2026-04-15 11:02 49.72822 -0.49228 23096 ft 279 kts 145°
2026-04-15 11:03 49.71246 -0.47467 23105 ft 280 kts 145°
2026-04-15 11:03 49.69686 -0.45726 23100 ft 280 kts 145°
2026-04-15 11:03 49.68104 -0.43963 23100 ft 280 kts 145°
2026-04-15 11:03 49.66521 -0.42200 23105 ft 280 kts 146°
2026-04-15 11:04 49.64933 -0.40433 23109 ft 282 kts 146°
2026-04-15 11:04 49.63340 -0.38662 23109 ft 282 kts 145°
2026-04-15 11:04 49.61743 -0.36887 23107 ft 283 kts 145°
2026-04-15 11:04 49.60147 -0.35116 23111 ft 282 kts 146°
2026-04-15 11:05 49.58554 -0.33349 23113 ft 282 kts 146°
2026-04-15 11:05 49.56961 -0.31583 23112 ft 281 kts 146°
2026-04-15 11:05 49.55375 -0.29827 23112 ft 280 kts 146°
2026-04-15 11:05 49.53793 -0.28077 23112 ft 280 kts 146°
2026-04-15 11:06 49.52230 -0.26348 23113 ft 279 kts 146°
2026-04-15 11:06 49.50656 -0.24610 23112 ft 279 kts 146°
2026-04-15 11:06 49.49083 -0.22873 23112 ft 278 kts 146°
2026-04-15 11:06 49.47509 -0.21137 23110 ft 278 kts 146°
2026-04-15 11:07 49.45939 -0.19406 23107 ft 277 kts 146°
2026-04-15 11:07 49.44370 -0.17679 23111 ft 277 kts 146°
2026-04-15 11:07 49.42803 -0.15955 23114 ft 277 kts 146°
2026-04-15 11:07 49.41237 -0.14233 23112 ft 276 kts 146°
2026-04-15 11:08 49.39674 -0.12517 23113 ft 276 kts 146°
2026-04-15 11:08 49.38111 -0.10801 23112 ft 276 kts 146°
2026-04-15 11:08 49.36551 -0.09090 23116 ft 276 kts 146°
2026-04-15 11:08 49.34989 -0.07378 23119 ft 276 kts 146°
2026-04-15 11:09 49.33448 -0.05691 23116 ft 275 kts 146°
2026-04-15 11:09 49.31889 -0.03985 23119 ft 275 kts 146°
2026-04-15 11:09 49.30330 -0.02281 23119 ft 275 kts 146°
2026-04-15 11:09 49.28774 -0.00581 23122 ft 275 kts 146°
2026-04-15 11:10 49.27216 0.01120 23120 ft 275 kts 146°
2026-04-15 11:10 49.25654 0.02822 23117 ft 275 kts 146°
2026-04-15 11:10 49.24099 0.04518 23117 ft 275 kts 146°
2026-04-15 11:10 49.22539 0.06216 23114 ft 275 kts 146°
2026-04-15 11:11 49.20980 0.07912 23115 ft 275 kts 146°
2026-04-15 11:11 49.19421 0.09608 23119 ft 275 kts 146°
2026-04-15 11:11 49.17858 0.11305 23114 ft 276 kts 146°
2026-04-15 11:11 49.16292 0.13005 23114 ft 276 kts 146°
2026-04-15 11:12 49.14727 0.14703 23116 ft 276 kts 146°
2026-04-15 11:12 49.13694 0.15823 23112 ft 276 kts 146°
2026-04-15 11:12 49.12129 0.17518 23110 ft 275 kts 146°
2026-04-15 11:12 49.10570 0.19205 23113 ft 274 kts 146°
2026-04-15 11:13 49.09015 0.20887 23114 ft 274 kts 146°
2026-04-15 11:13 49.06957 0.23111 23115 ft 273 kts 146°
2026-04-15 11:13 49.05404 0.24787 23115 ft 273 kts 146°
2026-04-15 11:13 49.04357 0.25918 23121 ft 273 kts 146°
2026-04-15 11:14 49.02806 0.27589 23118 ft 273 kts 146°
2026-04-15 11:14 49.01256 0.29259 23117 ft 273 kts 146°
2026-04-15 11:14 48.99726 0.30906 23123 ft 273 kts 146°
2026-04-15 11:14 48.98175 0.32574 23120 ft 273 kts 146°
2026-04-15 11:15 48.96624 0.34241 23122 ft 272 kts 146°
2026-04-15 11:15 48.95078 0.35902 23126 ft 272 kts 146°
2026-04-15 11:15 48.93531 0.37562 23126 ft 272 kts 146°
2026-04-15 11:15 48.91983 0.39222 23130 ft 272 kts 146°
2026-04-15 11:16 48.90437 0.40879 23130 ft 272 kts 146°
2026-04-15 11:16 48.88892 0.42533 23131 ft 272 kts 146°
2026-04-15 11:16 48.87346 0.44186 23131 ft 272 kts 146°
2026-04-15 11:16 48.85797 0.45843 23138 ft 272 kts 146°
2026-04-15 11:17 48.84252 0.47493 23134 ft 271 kts 147°
2026-04-15 11:17 48.82709 0.49140 23140 ft 271 kts 147°
2026-04-15 11:17 48.81185 0.50765 23142 ft 271 kts 146°
2026-04-15 11:17 48.79634 0.52391 23139 ft 270 kts 150°
2026-04-15 11:18 48.77925 0.53490 23141 ft 266 kts 168°
2026-04-15 11:18 48.76138 0.54188 23140 ft 265 kts 169°
2026-04-15 11:18 48.74352 0.54881 23144 ft 265 kts 169°
2026-04-15 11:18 48.72563 0.55584 23147 ft 266 kts 169°
2026-04-15 11:19 48.70772 0.56288 23145 ft 265 kts 169°
2026-04-15 11:19 48.68985 0.56989 23144 ft 265 kts 169°
2026-04-15 11:19 48.67195 0.57689 23145 ft 265 kts 169°
2026-04-15 11:19 48.65403 0.58390 23151 ft 266 kts 169°
2026-04-15 11:20 48.63616 0.59089 23151 ft 265 kts 169°
2026-04-15 11:20 48.61825 0.59789 23154 ft 265 kts 169°
2026-04-15 11:20 48.60039 0.60486 23153 ft 265 kts 169°
2026-04-15 11:20 48.58248 0.61185 23155 ft 266 kts 169°
2026-04-15 11:21 48.56459 0.61882 23158 ft 265 kts 169°
2026-04-15 11:21 48.54672 0.62580 23159 ft 265 kts 168°
2026-04-15 11:21 48.52994 0.63653 23165 ft 268 kts 150°
2026-04-15 11:21 48.51563 0.65450 23167 ft 269 kts 132°
2026-04-15 11:22 48.50497 0.67759 23177 ft 268 kts 121°
2026-04-15 11:22 48.49524 0.70157 23175 ft 268 kts 121°
2026-04-15 11:22 48.48544 0.72555 23179 ft 269 kts 121°
2026-04-15 11:22 48.47561 0.74950 23178 ft 269 kts 121°
2026-04-15 11:23 48.46578 0.77349 23175 ft 269 kts 121°
2026-04-15 11:23 48.45599 0.79739 23176 ft 269 kts 121°
2026-04-15 11:23 48.44618 0.82133 23180 ft 269 kts 121°
2026-04-15 11:23 48.43632 0.84536 23178 ft 269 kts 121°
2026-04-15 11:24 48.42647 0.86932 23175 ft 269 kts 121°
2026-04-15 11:24 48.41660 0.89332 23177 ft 269 kts 121°
2026-04-15 11:24 48.40687 0.91698 23177 ft 270 kts 121°
2026-04-15 11:24 48.39696 0.94102 23176 ft 270 kts 121°
2026-04-15 11:25 48.38706 0.96504 23170 ft 270 kts 121°
2026-04-15 11:25 48.37717 0.98901 23177 ft 270 kts 121°
2026-04-15 11:25 48.36727 1.01298 23177 ft 269 kts 121°
2026-04-15 11:25 48.35739 1.03688 23174 ft 269 kts 121°
2026-04-15 11:26 48.34746 1.06086 23173 ft 269 kts 121°
2026-04-15 11:26 48.33757 1.08474 23173 ft 269 kts 121°
2026-04-15 11:26 48.32781 1.10830 23172 ft 269 kts 121°
2026-04-15 11:26 48.31792 1.13214 23166 ft 268 kts 121°
2026-04-15 11:27 48.30806 1.15588 23175 ft 268 kts 122°
2026-04-15 11:27 48.29817 1.17968 23171 ft 268 kts 121°
2026-04-15 11:27 48.28831 1.20338 23176 ft 268 kts 122°
2026-04-15 11:27 48.27843 1.22711 23175 ft 268 kts 121°
2026-04-15 11:28 48.26856 1.25081 23171 ft 267 kts 122°
2026-04-15 11:28 48.25866 1.27453 23178 ft 267 kts 122°
2026-04-15 11:28 48.24878 1.29822 23173 ft 267 kts 122°
2026-04-15 11:28 48.23887 1.32194 23169 ft 267 kts 122°
2026-04-15 11:29 48.22912 1.34524 23172 ft 267 kts 122°
2026-04-15 11:29 48.21923 1.36886 23181 ft 267 kts 122°
2026-04-15 11:29 48.20933 1.39250 23178 ft 267 kts 122°
2026-04-15 11:29 48.19944 1.41608 23180 ft 267 kts 122°
2026-04-15 11:30 48.18951 1.43975 23179 ft 267 kts 122°
2026-04-15 11:30 48.17963 1.46327 23173 ft 267 kts 122°
2026-04-15 11:30 48.16972 1.48686 23174 ft 267 kts 122°
2026-04-15 11:30 48.15996 1.51006 23178 ft 267 kts 122°
2026-04-15 11:31 48.15006 1.53357 23183 ft 266 kts 122°
2026-04-15 11:31 48.14018 1.55701 23182 ft 266 kts 122°
2026-04-15 11:31 48.13029 1.58046 23185 ft 266 kts 122°
2026-04-15 11:31 48.12040 1.60387 23180 ft 266 kts 122°
2026-04-15 11:32 48.11049 1.62733 23178 ft 266 kts 122°
2026-04-15 11:32 48.10057 1.65078 23177 ft 266 kts 122°
2026-04-15 11:32 48.09067 1.67417 23177 ft 266 kts 122°
2026-04-15 11:32 48.08075 1.69759 23178 ft 266 kts 122°
2026-04-15 11:33 48.07098 1.72063 23178 ft 266 kts 122°
2026-04-15 11:33 48.06104 1.74404 23177 ft 265 kts 122°
2026-04-15 11:33 48.05112 1.76741 23179 ft 265 kts 122°
2026-04-15 11:33 48.04121 1.79073 23178 ft 265 kts 122°
2026-04-15 11:34 48.03133 1.81394 23178 ft 265 kts 122°
2026-04-15 11:34 48.02140 1.83725 23179 ft 265 kts 122°
2026-04-15 11:34 48.01151 1.86046 23179 ft 265 kts 123°
2026-04-15 11:34 48.00162 1.88366 23176 ft 265 kts 123°
2026-04-15 11:35 47.99169 1.90691 23177 ft 265 kts 123°
2026-04-15 11:35 47.98179 1.93007 23178 ft 265 kts 123°
2026-04-15 11:35 47.97200 1.95298 23178 ft 265 kts 123°
2026-04-15 11:35 47.96207 1.97617 23179 ft 265 kts 123°
2026-04-15 11:36 47.95218 1.99926 23204 ft 265 kts 123°
2026-04-15 11:36 47.94226 2.02240 23203 ft 264 kts 123°
2026-04-15 11:36 47.93234 2.04552 23204 ft 264 kts 123°
2026-04-15 11:36 47.92244 2.06856 23203 ft 264 kts 123°
2026-04-15 11:37 47.91252 2.09165 23203 ft 264 kts 123°
2026-04-15 11:37 47.90259 2.11471 23205 ft 264 kts 123°
2026-04-15 11:37 47.89268 2.13772 23204 ft 264 kts 123°
2026-04-15 11:37 47.88275 2.16077 23201 ft 264 kts 123°
2026-04-15 11:38 47.87283 2.18378 23204 ft 264 kts 123°
2026-04-15 11:38 47.86301 2.20652 23205 ft 264 kts 123°
2026-04-15 11:38 47.85306 2.22955 23204 ft 265 kts 123°
2026-04-15 11:38 47.84308 2.25263 23197 ft 264 kts 123°
2026-04-15 11:39 47.83314 2.27559 23204 ft 264 kts 123°
2026-04-15 11:39 47.82318 2.29859 23202 ft 263 kts 123°
2026-04-15 11:39 47.81327 2.32146 23202 ft 263 kts 123°
2026-04-15 11:39 47.80334 2.34433 23194 ft 263 kts 123°
2026-04-15 11:40 47.79343 2.36716 23202 ft 263 kts 123°
2026-04-15 11:40 47.78362 2.38975 23204 ft 263 kts 123°
2026-04-15 11:40 47.77366 2.41265 23203 ft 263 kts 123°
2026-04-15 11:40 47.76373 2.43546 23198 ft 263 kts 123°
2026-04-15 11:41 47.75380 2.45823 23203 ft 263 kts 123°
2026-04-15 11:41 47.74387 2.48102 23202 ft 263 kts 123°
2026-04-15 11:41 47.73395 2.50375 23204 ft 262 kts 123°
2026-04-15 11:41 47.72400 2.52653 23196 ft 262 kts 123°
2026-04-15 11:42 47.71409 2.54919 23204 ft 262 kts 124°
2026-04-15 11:42 47.70416 2.57190 23206 ft 262 kts 123°
2026-04-15 11:42 47.69423 2.59457 23203 ft 262 kts 123°
2026-04-15 11:42 47.68431 2.61722 23199 ft 262 kts 124°
2026-04-15 11:43 47.67437 2.63986 23206 ft 261 kts 124°
2026-04-15 11:43 47.66446 2.66245 23205 ft 261 kts 124°
2026-04-15 11:43 47.65452 2.68507 23203 ft 261 kts 123°
2026-04-15 11:43 47.64472 2.70736 23203 ft 261 kts 124°
2026-04-15 11:44 47.63479 2.72993 23205 ft 261 kts 124°
2026-04-15 11:44 47.62604 2.74979 23208 ft 260 kts 124°
2026-04-15 11:44 47.61612 2.77231 23209 ft 260 kts 124°
2026-04-15 11:44 47.60620 2.79479 23204 ft 261 kts 124°
2026-04-15 11:45 47.59624 2.81736 23203 ft 261 kts 124°
2026-04-15 11:45 47.58628 2.83990 23208 ft 261 kts 124°
2026-04-15 11:45 47.57640 2.86225 23210 ft 261 kts 124°
2026-04-15 11:45 47.56643 2.88477 23204 ft 262 kts 124°
2026-04-15 11:46 47.55644 2.90732 23208 ft 262 kts 124°
2026-04-15 11:46 47.54641 2.92995 23208 ft 261 kts 124°
2026-04-15 11:46 47.53644 2.95243 23208 ft 262 kts 124°
2026-04-15 11:46 47.52645 2.97492 23203 ft 261 kts 124°
2026-04-15 11:47 47.51648 2.99735 23210 ft 261 kts 124°
2026-04-15 11:47 47.50650 3.01979 23211 ft 261 kts 124°
2026-04-15 11:47 47.49661 3.04201 23211 ft 261 kts 124°
2026-04-15 11:47 47.48665 3.06438 23208 ft 261 kts 124°
2026-04-15 11:48 47.47668 3.08673 23210 ft 260 kts 124°
2026-04-15 11:48 47.46670 3.10912 23206 ft 260 kts 124°
2026-04-15 11:48 47.45672 3.13145 23209 ft 260 kts 124°
2026-04-15 11:48 47.44676 3.15375 23205 ft 260 kts 124°
2026-04-15 11:49 47.43680 3.17601 23212 ft 260 kts 124°
2026-04-15 11:49 47.42680 3.19836 23210 ft 261 kts 124°
2026-04-15 11:49 47.41678 3.22072 23210 ft 260 kts 124°
2026-04-15 11:49 47.40674 3.24310 23202 ft 260 kts 124°
2026-04-15 11:50 47.39675 3.26538 23210 ft 260 kts 124°
2026-04-15 11:50 47.38676 3.28761 23212 ft 260 kts 124°
2026-04-15 11:50 47.37676 3.30987 23209 ft 260 kts 124°
2026-04-15 11:50 47.36679 3.33204 23205 ft 259 kts 124°
2026-04-15 11:51 47.35694 3.35391 23212 ft 259 kts 124°
2026-04-15 11:51 47.34697 3.37604 23214 ft 259 kts 124°
2026-04-15 11:51 47.33698 3.39819 23217 ft 259 kts 124°
2026-04-15 11:51 47.32698 3.42035 23207 ft 260 kts 124°
2026-04-15 11:52 47.31694 3.44259 23210 ft 259 kts 124°
2026-04-15 11:52 47.30693 3.46473 23204 ft 259 kts 124°
2026-04-15 11:52 47.29692 3.48687 23214 ft 259 kts 124°
2026-04-15 11:52 47.28705 3.50865 23203 ft 259 kts 124°
2026-04-15 11:53 47.27704 3.53075 23214 ft 259 kts 124°
2026-04-15 11:53 47.26697 3.55296 23208 ft 260 kts 124°
2026-04-15 11:53 47.25694 3.57506 23211 ft 260 kts 124°
2026-04-15 11:53 47.24688 3.59722 23205 ft 259 kts 124°
2026-04-15 11:54 47.23686 3.61926 23211 ft 259 kts 124°
2026-04-15 11:54 47.22684 3.64128 23211 ft 259 kts 124°
2026-04-15 11:54 47.21693 3.66304 23211 ft 259 kts 124°
2026-04-15 11:54 47.20686 3.68515 23197 ft 260 kts 124°
2026-04-15 11:55 47.19668 3.70748 23055 ft 265 kts 124°
2026-04-15 11:55 47.18634 3.73012 22941 ft 267 kts 124°
2026-04-15 11:55 47.17596 3.75284 22861 ft 268 kts 124°
2026-04-15 11:55 47.16555 3.77563 22771 ft 268 kts 124°
2026-04-15 11:56 47.15514 3.79838 22694 ft 268 kts 124°
2026-04-15 11:56 47.14473 3.82111 22609 ft 268 kts 124°
2026-04-15 11:56 47.13430 3.84387 22534 ft 269 kts 124°
2026-04-15 11:56 47.12385 3.86665 22453 ft 268 kts 124°
2026-04-15 11:57 47.11355 3.88909 22597 ft 260 kts 124°
2026-04-15 11:57 47.09426 3.93111 23110 ft 241 kts 124°
2026-04-15 11:57 47.08490 3.95146 23208 ft 242 kts 124°
2026-04-15 11:58 47.07536 3.97217 23214 ft 246 kts 124°
2026-04-15 11:58 47.06572 3.99308 23211 ft 249 kts 124°
2026-04-15 11:58 47.05596 4.01423 23216 ft 252 kts 124°
2026-04-15 11:58 47.04610 4.03560 23212 ft 254 kts 124°
2026-04-15 11:59 47.03617 4.05710 23211 ft 255 kts 125°
2026-04-15 11:59 47.02622 4.07864 23216 ft 256 kts 124°
2026-04-15 11:59 47.01624 4.10021 23212 ft 256 kts 124°
2026-04-15 11:59 47.00624 4.12181 23212 ft 256 kts 125°
2026-04-15 12:00 46.99625 4.14339 23216 ft 256 kts 125°
2026-04-15 12:00 46.98622 4.16501 23214 ft 257 kts 125°
2026-04-15 12:00 46.97616 4.18669 23215 ft 257 kts 125°
2026-04-15 12:00 46.96623 4.20807 23216 ft 257 kts 125°
2026-04-15 12:01 46.95614 4.22978 23213 ft 258 kts 125°
2026-04-15 12:01 46.94612 4.25133 23213 ft 258 kts 125°
2026-04-15 12:01 46.93599 4.27309 23212 ft 259 kts 125°
2026-04-15 12:01 46.92586 4.29485 23204 ft 259 kts 125°
2026-04-15 12:02 46.91571 4.31663 23207 ft 259 kts 125°
2026-04-15 12:02 46.90556 4.33838 23212 ft 259 kts 125°
2026-04-15 12:02 46.89880 4.35286 23210 ft 259 kts 125°
2026-04-15 12:02 46.88862 4.37465 23207 ft 259 kts 125°